NOZ183 ENHD-ENGM

Flight info

Callsign NOZ183
Flight time 0h 40m
Altitude 27000
Route ODINU DCT BOBGA DCT ADOPI
Aircraft B738/M-SDE2E3FGHIRWXY/LB1

Departure

Time 2026-05-04 14:23
Airport Haugesund Airport, Karmøy (ENHD)

Arrival

Time 2026-05-04 15:04
Airport Oslo-Gardermoen International Airport (ENGM)
Time Latitude Longitude Altitude Speed Heading
2026-05-04 13:52 59.34422 5.21611 88 ft 0 kts 45°
2026-05-04 14:14 59.34420 5.21607 86 ft 3 kts 46°
2026-05-04 14:15 59.34398 5.21553 88 ft 3 kts 77°
2026-05-04 14:15 59.34407 5.21488 87 ft 1 kts 135°
2026-05-04 14:16 59.34409 5.21485 87 ft 0 kts 135°
2026-05-04 14:19 59.34404 5.21495 90 ft 3 kts 135°
2026-05-04 14:19 59.34379 5.21544 89 ft 7 kts 135°
2026-05-04 14:19 59.34334 5.21591 89 ft 8 kts 187°
2026-05-04 14:19 59.34290 5.21524 89 ft 8 kts 225°
2026-05-04 14:20 59.34237 5.21450 87 ft 10 kts 185°
2026-05-04 14:20 59.34179 5.21534 90 ft 12 kts 135°
2026-05-04 14:20 59.34115 5.21662 87 ft 14 kts 135°
2026-05-04 14:21 59.33964 5.21964 88 ft 16 kts 135°
2026-05-04 14:21 59.33889 5.22113 94 ft 15 kts 135°
2026-05-04 14:21 59.33816 5.22257 97 ft 14 kts 135°
2026-05-04 14:21 59.33778 5.22351 97 ft 11 kts 111°
2026-05-04 14:22 59.33758 5.22421 97 ft 4 kts 172°
2026-05-04 14:22 59.33753 5.22384 96 ft 3 kts 306°
2026-05-04 14:22 59.33771 5.22353 96 ft 3 kts 314°
2026-05-04 14:22 59.33772 5.22352 96 ft 0 kts 314°
2026-05-04 14:23 59.34186 5.21517 88 ft 115 kts 315°
2026-05-04 14:23 59.34907 5.20085 119 ft 174 kts 312°
2026-05-04 14:23 59.35814 5.18441 928 ft 178 kts 310°
2026-05-04 14:24 59.36660 5.16831 2172 ft 165 kts 309°
2026-05-04 14:24 59.37637 5.15617 3073 ft 178 kts 341°
2026-05-04 14:24 59.38933 5.15955 3827 ft 201 kts 14°
2026-05-04 14:24 59.40109 5.17712 4359 ft 232 kts 49°
2026-05-04 14:25 59.40911 5.20620 4757 ft 251 kts 64°
2026-05-04 14:25 59.42274 5.27431 5463 ft 281 kts 67°
2026-05-04 14:25 59.42991 5.31145 5790 ft 298 kts 66°
2026-05-04 14:26 59.43736 5.34977 6570 ft 301 kts 66°
2026-05-04 14:26 59.44410 5.38892 7383 ft 306 kts 78°
2026-05-04 14:26 59.44528 5.43093 8168 ft 311 kts 91°
2026-05-04 14:26 59.44457 5.47357 8906 ft 312 kts 94°
2026-05-04 14:27 59.44353 5.51678 9535 ft 321 kts 88°
2026-05-04 14:27 59.44845 5.55876 10142 ft 323 kts 62°
2026-05-04 14:27 59.45853 5.59983 10342 ft 344 kts 59°
2026-05-04 14:27 59.46962 5.64309 10554 ft 364 kts 59°
2026-05-04 14:28 59.48101 5.68879 10988 ft 377 kts 61°
2026-05-04 14:28 59.49230 5.73601 11554 ft 385 kts 62°
2026-05-04 14:28 59.50342 5.78422 12233 ft 389 kts 62°
2026-05-04 14:28 59.51444 5.83316 12935 ft 393 kts 62°
2026-05-04 14:29 59.53657 5.93311 14145 ft 402 kts 62°
2026-05-04 14:29 59.55910 6.03595 15079 ft 415 kts 62°
2026-05-04 14:30 59.57057 6.08851 15606 ft 420 kts 62°
2026-05-04 14:30 59.58216 6.14177 16129 ft 425 kts 62°
2026-05-04 14:30 59.60570 6.25042 17106 ft 435 kts 62°
2026-05-04 14:31 59.61766 6.30582 17565 ft 439 kts 62°
2026-05-04 14:31 59.64194 6.41854 18536 ft 452 kts 62°
2026-05-04 14:32 59.66654 6.53350 19760 ft 456 kts 62°
2026-05-04 14:32 59.67896 6.59168 20168 ft 463 kts 62°
2026-05-04 14:32 59.69192 6.65027 20681 ft 465 kts 59°
2026-05-04 14:32 59.70581 6.70821 21259 ft 466 kts 58°
2026-05-04 14:33 59.72018 6.76603 21876 ft 469 kts 56°
2026-05-04 14:33 59.73486 6.82452 22227 ft 478 kts 56°
2026-05-04 14:33 59.74967 6.88388 22716 ft 483 kts 56°
2026-05-04 14:33 59.76425 6.94312 23274 ft 484 kts 57°
2026-05-04 14:34 59.77905 7.00336 23722 ft 486 kts 56°
2026-05-04 14:34 59.79404 7.06357 24155 ft 489 kts 57°
2026-05-04 14:34 59.80874 7.12475 24545 ft 492 kts 57°
2026-05-04 14:34 59.82336 7.18646 24952 ft 495 kts 58°
2026-05-04 14:35 59.83804 7.24856 25351 ft 497 kts 58°
2026-05-04 14:35 59.85271 7.31060 25838 ft 494 kts 58°
2026-05-04 14:35 59.86736 7.37252 26320 ft 494 kts 58°
2026-05-04 14:35 59.88207 7.43463 26624 ft 498 kts 58°
2026-05-04 14:36 59.89689 7.49716 26787 ft 502 kts 58°
2026-05-04 14:36 59.91182 7.56028 26770 ft 504 kts 58°
2026-05-04 14:36 59.92666 7.62334 26754 ft 500 kts 59°
2026-05-04 14:36 59.94134 7.68599 26762 ft 499 kts 59°
2026-05-04 14:37 59.95605 7.74889 26852 ft 501 kts 58°
2026-05-04 14:37 59.97082 7.81216 26801 ft 499 kts 58°
2026-05-04 14:37 59.98523 7.87428 26563 ft 489 kts 58°
2026-05-04 14:37 59.99942 7.93563 26159 ft 484 kts 58°
2026-05-04 14:38 60.01349 7.99647 25690 ft 480 kts 58°
2026-05-04 14:38 60.02722 8.05594 25298 ft 476 kts 58°
2026-05-04 14:38 60.04100 8.11576 24862 ft 472 kts 58°
2026-05-04 14:38 60.05467 8.17529 24428 ft 470 kts 58°
2026-05-04 14:39 60.06826 8.23459 24000 ft 467 kts 58°
2026-05-04 14:39 60.08175 8.29369 23537 ft 466 kts 58°
2026-05-04 14:39 60.09515 8.35263 23034 ft 465 kts 59°
2026-05-04 14:40 60.12168 8.46988 22093 ft 459 kts 59°
2026-05-04 14:40 60.13482 8.52816 21641 ft 455 kts 59°
2026-05-04 14:40 60.14779 8.58586 21194 ft 452 kts 59°
2026-05-04 14:40 60.16065 8.64322 20783 ft 449 kts 59°
2026-05-04 14:41 60.17341 8.70024 20316 ft 447 kts 60°
2026-05-04 14:41 60.18608 8.75709 19954 ft 445 kts 60°
2026-05-04 14:41 60.21126 8.87026 19065 ft 441 kts 60°
2026-05-04 14:42 60.23605 8.98256 18163 ft 438 kts 61°
2026-05-04 14:42 60.24835 9.03841 17768 ft 434 kts 61°
2026-05-04 14:42 60.26046 9.09330 17257 ft 434 kts 62°
2026-05-04 14:43 60.27257 9.14857 16838 ft 430 kts 62°
2026-05-04 14:43 60.28471 9.20422 16425 ft 426 kts 62°
2026-05-04 14:43 60.29646 9.25824 16279 ft 414 kts 62°
2026-05-04 14:43 60.30774 9.31013 16084 ft 406 kts 62°
2026-05-04 14:44 60.31892 9.36176 15911 ft 397 kts 62°
2026-05-04 14:44 60.32911 9.41314 15674 ft 394 kts 68°
2026-05-04 14:44 60.33679 9.46581 15388 ft 389 kts 72°
2026-05-04 14:44 60.34350 9.51841 15061 ft 385 kts 73°
2026-05-04 14:45 60.35004 9.57050 14756 ft 381 kts 73°
2026-05-04 14:45 60.35667 9.62213 14415 ft 378 kts 72°
2026-05-04 14:45 60.36342 9.67326 14110 ft 375 kts 72°
2026-05-04 14:45 60.37022 9.72394 13772 ft 373 kts 72°
2026-05-04 14:46 60.37701 9.77436 13432 ft 371 kts 72°
2026-05-04 14:46 60.38377 9.82438 13034 ft 367 kts 72°
2026-05-04 14:46 60.39039 9.87386 12773 ft 363 kts 72°
2026-05-04 14:46 60.39701 9.92311 12405 ft 362 kts 72°
2026-05-04 14:47 60.40358 9.97208 12064 ft 360 kts 72°
2026-05-04 14:47 60.41009 10.02079 11717 ft 357 kts 73°
2026-05-04 14:47 60.41652 10.06920 11362 ft 353 kts 73°
2026-05-04 14:47 60.42286 10.11704 11117 ft 350 kts 73°
2026-05-04 14:48 60.42918 10.16465 10744 ft 350 kts 73°
2026-05-04 14:48 60.43536 10.21141 10457 ft 347 kts 73°
2026-05-04 14:48 60.44155 10.25831 10210 ft 342 kts 73°
2026-05-04 14:48 60.44759 10.30436 10081 ft 334 kts 74°
2026-05-04 14:49 60.45348 10.34937 9932 ft 327 kts 73°
2026-05-04 14:49 60.46002 10.39290 9788 ft 320 kts 63°
2026-05-04 14:49 60.47300 10.42783 9696 ft 302 kts 33°
2026-05-04 14:49 60.49038 10.44888 9699 ft 282 kts 15°
2026-05-04 14:50 60.50875 10.45869 9659 ft 267 kts
2026-05-04 14:50 60.52701 10.46481 9415 ft 266 kts
2026-05-04 14:50 60.54533 10.47071 9168 ft 266 kts
2026-05-04 14:50 60.56357 10.47677 8940 ft 265 kts
2026-05-04 14:51 60.58140 10.48718 8692 ft 273 kts 22°
2026-05-04 14:51 60.59777 10.50697 8472 ft 273 kts 26°
2026-05-04 14:51 60.61410 10.52681 8202 ft 273 kts 25°
2026-05-04 14:51 60.63044 10.54615 7995 ft 271 kts 25°
2026-05-04 14:52 60.64680 10.56530 7750 ft 270 kts 25°
2026-05-04 14:52 60.66303 10.58427 7529 ft 268 kts 26°
2026-05-04 14:52 60.67749 10.60872 7228 ft 275 kts 47°
2026-05-04 14:52 60.68945 10.63904 7015 ft 274 kts 47°
2026-05-04 14:53 60.70156 10.66897 6791 ft 273 kts 46°
2026-05-04 14:53 60.71359 10.69813 6563 ft 272 kts 47°
2026-05-04 14:53 60.72341 10.73109 6290 ft 275 kts 72°
2026-05-04 14:53 60.72493 10.76976 6012 ft 274 kts 102°
2026-05-04 14:54 60.71817 10.80543 5745 ft 268 kts 122°
2026-05-04 14:54 60.70860 10.83770 5491 ft 264 kts 132°
2026-05-04 14:54 60.69439 10.85960 5202 ft 253 kts 162°
2026-05-04 14:54 60.67818 10.87348 5046 ft 253 kts 162°
2026-05-04 14:55 60.66205 10.88771 5002 ft 252 kts 161°
2026-05-04 14:55 60.64619 10.90239 5006 ft 249 kts 160°
2026-05-04 14:55 60.63052 10.91743 5004 ft 249 kts 160°
2026-05-04 14:55 60.61519 10.93460 5000 ft 254 kts 153°
2026-05-04 14:56 60.60017 10.95404 4995 ft 257 kts 152°
2026-05-04 14:56 60.58517 10.97373 4953 ft 256 kts 153°
2026-05-04 14:56 60.57035 10.99308 4989 ft 251 kts 153°
2026-05-04 14:56 60.55551 11.01229 4991 ft 255 kts 153°
2026-05-04 14:57 60.54043 11.03166 4993 ft 257 kts 153°
2026-05-04 14:57 60.52530 11.05103 4993 ft 257 kts 153°
2026-05-04 14:57 60.50994 11.07059 4745 ft 264 kts 153°
2026-05-04 14:57 60.49442 11.09031 4508 ft 263 kts 153°
2026-05-04 14:58 60.47887 11.11007 4236 ft 264 kts 153°
2026-05-04 14:58 60.46332 11.12974 4038 ft 261 kts 154°
2026-05-04 14:58 60.44815 11.14891 4008 ft 253 kts 153°
2026-05-04 14:58 60.43330 11.16769 3986 ft 249 kts 154°
2026-05-04 14:59 60.41868 11.18609 4009 ft 247 kts 154°
2026-05-04 14:59 60.40351 11.20102 4012 ft 237 kts 176°
2026-05-04 14:59 60.37434 11.18695 3644 ft 208 kts 203°
2026-05-04 15:00 60.36099 11.17815 3531 ft 193 kts 206°
2026-05-04 15:00 60.34886 11.16926 3428 ft 181 kts 206°
2026-05-04 15:00 60.33682 11.16154 3203 ft 182 kts 204°
2026-05-04 15:01 60.31298 11.14720 2730 ft 176 kts 201°
2026-05-04 15:01 60.30127 11.14074 2477 ft 173 kts 201°
2026-05-04 15:01 60.28958 11.13487 2263 ft 172 kts 200°
2026-05-04 15:01 60.27819 11.12814 2022 ft 176 kts 205°
2026-05-04 15:02 60.26672 11.12092 1779 ft 169 kts 203°
2026-05-04 15:02 60.25577 11.11462 1532 ft 158 kts 202°
2026-05-04 15:02 60.24530 11.10858 1349 ft 154 kts 201°
2026-05-04 15:02 60.23517 11.10271 1083 ft 149 kts 201°
2026-05-04 15:03 60.22537 11.09713 894 ft 145 kts 202°
2026-05-04 15:03 60.21578 11.09150 718 ft 144 kts 200°
2026-05-04 15:03 60.20676 11.08617 683 ft 120 kts 195°
2026-05-04 15:03 60.20020 11.08248 679 ft 76 kts 195°
2026-05-04 15:04 60.19654 11.08037 679 ft 40 kts 196°
2026-05-04 15:04 60.19424 11.07902 679 ft 26 kts 196°
2026-05-04 15:04 60.19293 11.07903 681 ft 17 kts 140°
2026-05-04 15:04 60.19257 11.08054 681 ft 7 kts 106°
2026-05-04 15:05 60.19254 11.08074 681 ft 0 kts 106°
2026-05-04 15:05 60.19253 11.08084 681 ft 2 kts 107°
2026-05-04 15:06 60.19247 11.08129 679 ft 5 kts 99°
2026-05-04 15:06 60.19268 11.08204 681 ft 8 kts 32°
2026-05-04 15:06 60.19321 11.08240 682 ft 9 kts 15°
2026-05-04 15:07 60.19445 11.08311 684 ft 9 kts 17°
2026-05-04 15:07 60.19510 11.08350 684 ft 8 kts 17°
2026-05-04 15:07 60.19540 11.08375 683 ft 4 kts 39°
2026-05-04 15:07 60.19548 11.08432 683 ft 5 kts 92°
2026-05-04 15:08 60.19537 11.08516 684 ft 7 kts 105°
2026-05-04 15:08 60.19522 11.08625 684 ft 10 kts 108°
2026-05-04 15:08 60.19490 11.08693 685 ft 6 kts 173°
2026-05-04 15:08 60.19463 11.08683 689 ft 6 kts 194°
2026-05-04 15:09 60.19433 11.08665 687 ft 2 kts 196°
2026-05-04 15:09 60.19422 11.08659 685 ft 0 kts 195°